Theta_e
318 327 331 329 337 345 345 343 338 341 344 343 342 346 350 352 349 346 341 340 341 343 343 342 344 352 344 342 345 335 333 335 332 330 327 330 334 336 338 341 344 344 344 344 343 342 334 338 332
319 322 328 331 339 351 348 336 336 336 342 340 346 345 350 355 355 353 349 340 340 345 348 347 343 350 344 344 344 334 333 333 333 329 326 329 338 340 342 344 345 345 345 344 343 343 337 334 331
323 328 329 333 337 342 338 334 337 338 341 340 341 342 347 355 353 353 342 340 340 340 348 342 342 343 343 345 339 333 333 333 332 330 327 330 337 340 342 343 344 345 345 343 337 334 332 331 329
325 327 329 332 339 335 334 335 338 342 344 340 343 349 352 350 350 349 339 340 339 338 350 337 339 342 344 341 336 334 333 333 333 333 330 329 333 337 339 340 341 342 341 336 335 335 334 333 332
324 327 329 333 333 333 333 334 338 342 343 344 343 349 354 347 347 343 338 339 339 343 348 338 336 338 338 337 336 335 334 334 333 333 333 331 332 333 335 337 338 338 337 335 335 334 335 335 334
324 329 329 331 332 331 333 333 339 341 344 345 345 343 350 346 344 339 338 338 339 349 343 337 334 336 337 338 338 336 335 335 334 334 334 336 335 334 335 335 335 335 334 334 334 335 335 336 336
325 328 330 331 331 331 331 332 334 345 344 342 343 348 344 346 343 339 338 338 343 346 344 345 339 335 336 337 338 338 336 336 336 336 336 336 336 337 337 337 336 336 337 336 336 336 337 336 335
328 328 328 330 330 331 330 332 333 348 344 337 339 349 354 347 344 342 339 339 341 346 344 344 345 345 344 339 339 338 337 336 337 338 338 337 336 336 336 337 336 336 337 337 337 337 336 336 336
329 329 328 329 329 330 330 331 330 336 343 343 340 339 342 347 345 344 341 340 341 345 345 343 344 343 343 345 342 339 339 337 337 337 338 338 341 342 344 340 345 343 338 339 340 339 335 334 335
328 331 331 330 329 329 328 329 329 330 338 344 342 340 349 347 346 345 345 343 342 342 346 344 343 343 342 342 342 341 343 343 340 342 342 336 342 346 345 347 342 342 340 335 335 332 328 332 333
327 329 331 329 328 328 329 328 328 329 329 332 336 340 346 351 346 344 344 345 344 343 343 345 344 344 343 345 343 341 343 341 341 342 343 341 343 344 344 346 346 344 336 330 337 337 332 339 345
325 326 328 328 327 327 328 329 328 327 328 328 328 333 339 347 347 343 344 344 344 345 344 344 345 344 344 348 347 342 342 341 340 340 341 345 341 343 344 343 346 346 342 341 342 344 346 345 347
323 324 325 326 326 326 328 328 328 328 328 328 329 333 334 337 342 342 343 346 344 346 346 346 346 345 345 347 346 346 344 343 342 342 341 342 342 340 342 341 341 343 343 343 345 344 343 346 345
324 323 324 325 325 326 326 327 328 328 329 328 330 330 333 334 340 343 346 350 348 348 348 348 349 348 347 348 349 345 347 346 344 344 344 343 342 341 339 339 339 340 339 339 341 342 345 347 347
324 324 323 324 325 325 326 326 327 329 329 329 330 330 331 336 335 343 350 353 352 352 351 349 350 352 352 352 350 351 348 347 347 345 345 344 343 342 343 340 340 339 339 339 340 341 343 345 344
323 324 324 324 324 325 325 325 326 330 329 329 331 333 330 353 351 351 353 354 355 354 354 351 350 354 354 355 354 353 352 351 348 347 345 345 346 345 344 341 340 339 338 337 337 338 343 345 347
325 323 323 324 325 325 325 326 329 330 330 331 332 336 346 351 353 353 353 354 356 356 355 353 352 352 355 355 355 354 352 352 351 349 347 347 347 347 346 345 344 341 339 338 339 339 339 341 344
324 324 324 325 326 326 325 326 331 331 331 332 333 338 342 347 348 351 354 356 355 354 354 356 354 352 355 355 354 354 352 351 352 351 349 347 347 347 346 345 343 344 342 343 345 346 347 346 345
325 326 326 327 328 327 326 327 332 332 331 332 334 338 347 350 347 347 348 351 352 352 352 352 354 354 355 354 355 354 354 353 352 351 349 347 346 345 345 343 344 347 346 347 346 346 345 343 342
325 325 327 326 326 327 327 327 327 332 333 332 335 340 348 347 346 346 345 346 346 348 349 349 352 353 353 353 352 352 352 352 349 349 347 347 347 347 345 345 345 346 345 344 344 343 342 341 338
326 326 325 324 325 326 326 328 329 329 334 332 336 340 343 346 346 345 345 345 344 344 345 346 347 350 350 349 351 352 350 348 346 345 343 341 340 340 340 340 341 341 338 333 333 335 333 331 332
327 326 325 325 326 327 328 330 332 329 334 335 340 342 343 344 345 344 345 345 344 342 343 342 342 344 345 345 346 346 346 345 341 339 340 339 337 336 335 335 335 335 338 338 336 336 330 328 330
326 326 326 327 328 328 328 329 327 331 334 337 340 340 342 343 343 344 342 340 339 338 338 338 339 339 339 341 342 343 342 340 339 338 338 335 333 331 330 331 331 331 333 336 337 338 339 340 338
326 326 327 327 328 331 328 328 329 329 335 338 340 340 341 342 341 341 339 337 335 332 332 332 332 331 332 334 336 336 336 335 334 333 332 331 330 327 324 324 327 327 326 327 329 332 333 334 335
327 328 328 329 330 330 328 328 330 329 329 338 341 341 340 341 340 340 337 333 332 331 331 331 330 329 328 328 328 328 327 327 324 326 323 323 323 322 322 322 321 321 321 324 326 324 327 327 330
326 328 329 331 332 328 330 331 330 331 334 336 342 341 340 339 339 337 334 332 331 330 331 330 329 328 327 326 325 325 327 323 322 323 323 321 322 321 322 321 320 319 319 319 321 325 323 326 323
325 329 327 330 330 330 329 330 333 332 339 342 341 341 341 339 339 337 334 332 330 330 330 330 328 327 326 325 324 322 323 324 324 324 322 322 322 320 320 319 318 318 318 318 320 322 323 323 316
327 326 329 331 336 339 331 331 333 336 336 340 341 342 341 340 338 336 334 332 330 330 329 329 328 326 326 325 323 323 323 323 323 322 322 321 321 320 319 318 317 316 316 317 317 319 319 319 323
328 329 329 332 332 335 338 332 333 337 339 339 339 339 339 339 338 336 335 332 331 329 328 327 326 325 324 323 322 323 323 323 323 322 321 320 319 318 317 316 315 314 314 314 315 316 317 317 321
330 330 332 334 336 336 336 335 331 333 335 337 336 338 337 337 336 335 334 332 331 329 328 327 326 326 324 323 323 324 322 323 323 322 320 319 317 315 314 312 311 311 310 310 310 312 315 316 319
Wind_Speed
18 17 14 13 4 6 10 13 12 16 12 11 9 12 21 18 10 5 11 23 31 26 24 22 21 22 20 18 15 14 13 12 13 14 16 17 18 18 18 18 17 16 15 15 14 14 15 15 14
16 16 14 5 4 5 10 8 13 13 9 11 1 19 21 17 17 14 15 31 28 24 25 23 21 23 21 18 16 14 13 13 13 13 15 16 16 16 16 15 14 13 12 12 11 10 10 11 11
20 15 8 5 11 10 1 10 11 10 8 14 15 17 11 15 15 16 24 30 27 24 22 24 22 21 19 18 15 14 13 13 12 12 13 14 14 14 14 13 12 11 11 10 10 9 9 10 10
11 8 6 10 11 7 8 5 1 10 7 14 14 14 10 11 10 22 27 28 25 24 22 26 22 21 20 18 16 15 13 12 12 11 11 11 12 12 12 11 10 9 9 8 8 7 7 8 7
18 8 11 16 6 7 8 3 10 17 12 25 23 15 10 14 20 27 28 24 26 26 22 24 22 20 18 17 16 15 14 13 12 11 10 10 11 10 9 9 8 7 6 6 5 4 4 4 4
8 10 15 14 5 5 5 5 12 10 25 16 21 13 7 16 22 26 25 23 25 27 24 23 21 20 19 17 16 15 14 13 11 10 9 9 9 8 7 6 5 5 4 3 1 1 1 2 2
13 13 19 20 2 3 7 4 6 24 20 6 16 8 12 10 21 23 23 23 28 26 24 22 21 21 18 17 16 15 14 12 11 10 9 8 8 7 6 6 5 4 3 2 2 2 3 4 4
11 12 21 19 7 8 9 5 5 22 7 6 10 4 10 8 20 22 21 22 23 26 21 19 19 18 17 17 16 15 14 13 11 10 10 9 9 9 8 7 6 5 5 5 5 5 6 7 9
14 11 15 14 7 7 8 6 3 6 15 22 15 20 27 18 20 20 19 20 21 26 23 20 18 17 17 15 16 15 14 13 12 12 11 10 7 8 9 8 10 10 8 8 8 8 9 9 11
13 13 23 8 17 7 9 8 8 5 12 27 36 29 28 22 20 17 18 17 21 19 24 24 23 20 19 17 15 13 12 12 12 11 12 12 9 17 10 13 11 11 12 12 11 10 9 12 14
17 17 22 11 8 11 10 3 2 9 7 16 14 17 16 16 13 17 18 20 22 22 20 25 26 23 20 22 18 16 16 14 13 16 16 10 17 14 12 13 17 16 15 14 12 15 15 13 14
18 19 21 6 4 5 12 9 5 9 10 10 7 10 9 8 12 11 16 19 20 22 19 23 23 22 18 26 19 18 22 19 19 16 17 15 13 12 14 17 18 17 13 16 12 21 17 12 15
16 17 18 7 10 8 13 10 11 14 10 2 4 10 4 5 6 8 5 12 19 20 17 16 23 19 17 8 16 19 19 22 21 21 20 15 14 13 12 15 15 14 14 15 15 17 16 21 15
12 14 20 10 15 15 10 12 19 9 6 3 2 6 13 6 8 5 10 19 11 10 18 14 21 22 19 14 7 16 9 11 14 15 19 18 17 15 14 14 15 14 15 15 15 15 12 8 13
12 12 17 11 15 14 11 13 17 8 3 1 1 1 6 5 4 5 16 17 10 4 6 9 15 20 18 15 13 8 14 14 10 16 11 18 16 18 14 15 15 15 15 16 17 18 18 17 20
16 13 15 18 18 14 15 15 20 14 8 8 3 5 3 18 16 18 17 13 12 9 7 6 13 20 19 15 15 13 13 12 14 13 16 17 14 15 14 18 16 14 15 14 16 15 17 20 19
14 15 19 21 21 13 13 16 8 11 9 7 5 7 11 13 16 16 12 11 9 5 8 6 5 11 18 16 14 15 14 15 15 15 14 15 17 15 19 16 15 15 14 14 15 15 17 21 21
14 18 16 15 15 13 16 15 14 10 12 7 8 8 10 9 10 9 14 12 7 4 2 3 6 9 11 16 16 14 15 15 14 13 14 14 15 13 15 15 16 15 12 12 15 13 14 14 22
21 15 16 12 10 15 14 15 17 17 12 13 9 7 12 11 8 7 6 7 7 9 8 8 0 3 5 6 13 14 14 17 16 16 14 12 12 11 15 15 13 15 15 15 17 14 15 16 21
20 12 17 11 7 11 13 17 16 17 15 12 13 10 13 8 7 8 8 9 9 8 7 8 9 4 3 8 11 8 7 5 11 9 12 9 4 5 5 6 10 12 11 10 12 12 10 12 12
12 14 16 16 15 15 10 13 19 18 18 14 9 12 12 12 9 8 9 12 11 10 9 9 7 7 10 10 7 4 1 3 10 11 11 10 11 13 11 9 11 13 13 12 10 11 11 12 11
16 17 18 18 18 14 17 14 19 20 18 18 13 11 11 10 11 10 13 15 13 13 13 10 8 11 11 13 16 11 8 15 16 13 11 9 8 8 11 10 11 13 12 14 12 10 9 13 16
18 19 19 17 16 18 20 13 17 17 21 20 19 17 16 13 12 12 14 16 16 14 13 14 14 14 14 14 16 17 16 14 12 9 8 10 10 12 14 12 12 13 12 12 12 12 11 14 17
20 19 17 19 11 15 21 18 17 16 18 22 22 20 18 17 15 14 17 17 18 16 15 15 15 15 15 16 17 16 14 11 12 10 9 9 9 12 17 14 13 14 15 15 13 12 12 13 16
18 16 12 15 13 16 19 19 16 16 18 26 27 23 20 18 16 15 14 17 17 17 15 14 13 13 13 14 15 15 16 14 13 14 12 15 15 15 13 12 13 14 13 13 12 12 10 12 13
20 17 14 17 15 18 22 21 16 17 5 13 24 23 21 20 18 17 17 18 16 16 15 14 13 13 12 11 10 11 7 15 14 14 12 11 12 9 9 10 11 12 13 13 14 11 12 11 13
23 18 19 20 20 16 18 21 10 14 18 21 21 21 20 18 18 17 19 18 18 15 14 15 14 12 12 11 10 10 13 14 10 8 11 11 9 9 10 10 12 12 13 12 14 14 14 15 14
24 17 15 13 19 19 18 18 15 14 14 16 19 17 16 15 17 16 17 18 18 16 14 14 13 12 12 12 11 10 9 9 9 9 9 8 7 8 11 12 13 14 15 14 15 15 16 18 12
15 18 18 16 14 12 14 13 3 5 11 9 13 16 15 15 17 17 17 20 19 18 16 15 14 12 12 12 10 9 8 7 6 6 6 6 7 10 12 14 16 16 16 16 16 16 16 16 16
20 18 19 14 22 15 15 13 6 9 13 17 20 17 18 18 16 18 20 21 18 17 20 18 12 16 16 14 11 9 5 5 4 4 5 7 9 11 13 15 16 16 16 16 16 18 16 15 15
Wind_Direction
306 303 266 286 249 6 245 248 84 97 78 88 59 81 69 43 109 179 198 126 120 129 138 138 138 134 140 142 136 130 123 116 108 102 104 108 109 110 110 106 105 106 106 103 98 96 94 89 78
306 308 278 260 252 113 275 93 93 83 96 106 40 96 75 64 90 132 132 123 124 135 138 139 140 137 142 144 140 137 131 124 114 108 109 113 116 114 111 109 109 108 104 101 99 97 91 86 81
299 266 283 224 237 186 318 65 110 120 166 103 81 56 53 95 100 129 132 123 128 137 140 145 143 141 144 146 145 143 140 134 124 116 114 118 121 119 116 113 110 107 105 102 98 94 87 82 79
295 287 229 242 169 242 50 71 191 139 118 91 74 90 90 21 105 126 134 130 138 140 140 146 146 145 148 151 152 152 148 143 135 128 123 125 128 128 126 121 119 116 108 105 101 95 88 81 71
284 267 269 263 219 95 85 51 74 45 7 10 58 53 79 82 110 132 136 137 138 136 139 147 149 150 152 155 157 158 156 154 150 143 138 135 136 135 131 129 127 123 118 108 97 96 82 71 61
289 264 272 269 171 97 92 318 110 114 80 341 58 47 50 113 128 135 141 145 138 128 137 147 153 155 158 160 162 165 165 163 161 155 152 148 143 142 142 141 140 137 132 121 105 51 29 4 13
268 287 287 289 206 176 60 321 10 92 92 205 52 52 312 133 140 141 145 147 133 131 141 151 155 160 162 164 166 170 171 171 171 169 168 165 165 166 164 166 172 178 181 191 237 282 301 294 283
264 290 287 274 142 105 95 286 301 114 148 131 118 200 264 170 148 148 148 149 145 138 143 152 157 158 160 166 170 174 177 180 183 184 186 187 189 192 194 202 205 216 221 228 241 256 266 269 269
267 273 272 285 273 95 109 277 56 127 158 122 196 175 217 173 156 158 152 153 148 145 146 156 161 164 163 165 173 176 183 187 192 198 201 203 203 221 220 226 228 252 252 245 245 254 267 272 271
237 250 257 332 341 48 82 321 21 298 142 158 172 190 178 159 166 157 156 163 155 164 155 159 166 166 174 166 180 173 185 191 197 203 216 205 210 216 209 226 235 244 255 251 252 255 262 261 264
238 243 262 342 8 1 346 346 203 295 16 80 96 125 140 151 166 174 176 170 173 163 168 161 171 165 178 167 171 169 189 191 203 206 214 224 217 232 218 222 228 243 245 242 246 260 256 261 264
239 249 256 289 97 284 278 285 330 268 60 38 51 71 121 164 168 224 185 166 163 153 166 157 158 166 189 166 159 176 191 188 199 200 210 224 242 251 221 219 237 231 220 240 232 250 256 268 248
238 249 257 234 276 257 268 271 268 274 87 28 297 123 152 185 225 206 128 87 127 139 150 162 162 168 198 196 177 180 196 187 196 197 201 209 229 245 243 246 259 229 232 235 233 233 255 226 242
236 240 253 234 247 239 240 260 251 260 75 265 284 278 177 191 182 206 103 93 91 93 141 165 162 177 192 215 199 196 205 205 202 196 202 206 211 237 241 248 259 267 272 280 275 261 280 265 266
246 272 244 246 240 240 226 256 252 178 131 254 95 326 340 153 193 158 123 108 116 124 110 155 164 172 181 209 228 200 207 220 224 217 228 205 208 218 231 240 252 253 259 272 280 288 295 294 283
241 249 248 235 221 230 243 248 233 143 162 209 136 82 225 53 42 45 90 96 124 160 190 186 195 174 179 197 210 219 231 231 222 231 215 211 216 232 245 246 254 263 268 277 286 290 290 288 279
228 240 231 253 194 210 196 247 137 149 170 188 169 123 67 85 62 43 39 93 92 87 155 212 219 190 183 197 212 213 231 222 236 233 230 220 215 227 239 242 255 262 268 271 284 290 288 292 293
223 212 247 236 175 200 217 234 152 176 172 192 199 140 107 78 66 66 40 59 94 90 53 196 222 248 189 193 204 226 224 231 235 243 235 229 205 222 237 236 253 262 264 267 257 264 272 312 319
264 295 238 207 186 189 230 249 182 180 196 186 168 161 119 106 78 65 56 47 56 47 43 55 116 235 248 229 204 216 243 225 228 234 234 223 219 231 234 233 260 243 239 250 262 264 260 274 281
258 277 282 295 255 192 216 233 260 184 187 197 177 152 131 135 127 107 94 79 64 53 45 45 36 38 224 260 266 253 262 200 117 113 112 94 77 46 259 294 275 268 282 279 275 284 269 274 273
260 259 265 264 262 233 236 258 266 218 178 194 143 152 152 159 144 131 118 107 105 93 77 56 44 39 36 17 314 253 108 66 49 57 66 50 40 41 38 35 3 346 333 329 309 289 301 296 284
244 248 255 264 271 257 199 244 239 242 180 178 159 151 164 158 143 143 134 126 124 114 93 81 67 54 39 41 42 46 65 83 82 86 83 60 31 8 1 348 346 334 332 335 337 326 309 288 290
252 263 264 257 246 272 257 254 267 233 198 175 176 180 167 168 155 146 132 122 111 106 96 82 77 67 56 56 65 76 80 82 75 69 60 26 30 38 33 24 8 352 331 321 315 313 300 296 293
263 254 250 269 252 245 244 253 259 242 182 183 177 174 164 162 166 148 134 136 130 113 102 91 81 72 67 69 69 77 78 74 74 63 66 67 59 63 39 30 22 11 9 357 349 333 324 312 302
241 248 248 240 234 247 244 243 243 251 265 183 168 162 167 164 159 149 151 147 137 131 126 113 102 93 82 76 75 76 83 80 54 70 48 52 62 44 31 25 21 13 2 357 346 342 334 334 333
234 230 237 239 234 243 232 237 244 240 108 146 140 154 166 170 158 160 162 148 153 145 128 124 125 119 108 100 95 75 109 94 74 56 65 55 48 61 32 21 13 7 357 356 343 336 347 353 353
247 228 240 258 276 286 282 281 145 133 136 140 152 156 166 175 159 162 151 160 147 150 146 136 129 128 122 114 102 88 72 79 76 54 61 61 47 29 19 9 358 353 352 349 343 337 333 340 324
217 247 243 225 244 251 261 276 287 186 157 151 157 161 167 173 159 160 153 159 154 153 152 140 149 145 144 139 141 122 107 94 90 82 72 56 37 17 360 353 346 340 337 338 342 339 330 333 336
210 222 232 263 263 261 258 268 43 82 146 141 153 164 175 192 170 161 155 154 164 159 165 160 159 148 154 147 124 130 116 107 95 81 59 36 14 359 349 343 337 332 330 333 335 328 325 337 336
260 242 250 230 241 253 269 238 167 180 163 167 195 183 190 187 187 172 159 160 172 174 172 160 182 161 166 148 165 140 129 120 90 57 25 4 353 349 343 338 335 331 328 330 325 325 324 323 339